Regional Weather Roundup
Issued by NWS

Home | Current Version | Previous Version | Graphics & Text | Print | Product List | Glossary On
Versions: 1 2 3 4 5 6 7 8 9 10 11 12 13 14 15 16 17 18 19 20 21 22 23 24 25 26 27
000
ASUS45 KBOU 242207
RWRCO

WEATHER ROUNDUP FOR COLORADO
NATIONAL WEATHER SERVICE DENVER/BOULDER CO
400 PM MDT SUN SEP 24 2017

NOTE: "FAIR" INDICATES FEW OR NO CLOUDS BELOW 12000 FEET WITH NO
SIGNIFICANT WEATHER AND/OR OBSTRUCTIONS TO VISIBILITY.

COZ001>005-013-030-031-242300-
...NORTHWEST COLORADO...

CITY           SKY/WX    TMP DP  RH WIND       PRES   REMARKS
CRAIG          PTSUNNY   63  21  20 W24G31    29.90S
HAYDEN         CLOUDY    52  31  44 SE12      29.94R
MEEKER         FAIR      56  16  20 SW18G31   29.93R
RABBIT EARS PA CLOUDY    34  32  93 NW12G21   30.03S WCI  25
STEAMBOAT SPGS PTSUNNY   52  31  44 W12G21    29.92S
WALDEN         PTSUNNY   50  36  57 N20G26    29.94F
$$

COZ006>008-011-242300-
...WEST CENTRAL VALLEYS...

CITY           SKY/WX    TMP DP  RH WIND       PRES   REMARKS
GRAND JUNCTION FAIR      62  24  23 NW14      29.92S
MONTROSE       FAIR      62  23  22 SW24G37   29.91F
EAGLE          FAIR      57  27  31 W21G28    29.91R
RIFLE          FAIR      60  23  24 SW9G17    29.92R
DELTA          NOT AVBL
NUCLA          FAIR      61  14  16 SW15G25   30.01S
$$

COZ017>023-064>068-242300-
...SOUTHWEST COLORADO...

CITY           SKY/WX    TMP DP  RH WIND       PRES   REMARKS
DURANGO        FAIR      60  20  21 W15G22    29.99F
CORTEZ         FAIR      61  21  21 S13       29.99F
PAGOSA SPRINGS FAIR      58  14  17 S17       30.03S
TELLURIDE      FAIR      47  17  29 S14G20    30.06R
WOLF CREEK PAS PTSUNNY   32  23  69 S20G29    30.20S WCI  20
$$

COZ009-010-012-014-032>034-037-058>063-242300-
...CENTRAL COLORADO...

CITY           SKY/WX    TMP DP  RH WIND       PRES   REMARKS
ASPEN          FAIR      52  29  41 N14G22    29.93R
BUENA VISTA    CLOUDY    62  19  19 SE17G28   29.90F
COPPER MTN     CLOUDY    43  16  33 SE12G23   30.08R
BERTHOUD PASS  HAZE      28  19  69 E28G43    30.10F VSB<1/4 WCI  13
COTTONWOOD PAS FAIR      59  18  20 E17G32    29.99F
GUNNISON       FAIR      58  25  28 W17G23    29.93R
KREMMLING      PTSUNNY   63  28  27 W16G24    29.89S
LEADVILLE      PTSUNNY   49  12  22 S20G33    29.95F
MONARCH PASS   FAIR      43   9  24 SW35G44   30.20S
SALIDA         FAIR      64  31  29 SE15G25   29.97F
SUNLIGHT       CLOUDY    32  23  69 SW16G28   30.09S WCI  21
WILKERSON PASS FAIR      46  28  49 S8G22     30.14S
$$

COZ069>075-242300-
...SAN LUIS VALLEY/SANGRE DE CRISTO MOUNTAINS...

CITY           SKY/WX    TMP DP  RH WIND       PRES   REMARKS
ALAMOSA        FAIR      63  18  17 S22G33    29.96S
DEL NORTE      FAIR      59  17  19 SW18G28   29.98S
LA VETA PASS   HAZE      48  41  76 N6        30.21S VSB 1/2
SAGUACHE       FAIR      63  21  20 W14G22    29.96R
$$

COZ035-036-038>040-242300-
...NORTHERN COLORADO FRONT RANGE...

CITY           SKY/WX    TMP DP  RH WIND       PRES   REMARKS
DENVER INTL AP CLOUDY    49  44  83 E16       29.97F
DMNS CITY PARK   N/A     48  46  93 NE14      29.98S
AURORA         CLOUDY    47  47  99 NE12      29.98F FOG
FRONT RANGE AP CLOUDY    48  46  93 NE12G18   29.99F FOG
ERIE MUNI ARPT CLOUDY    49  45  85 NE6       30.04F
BOULDER MUN AP DRIZZLE   46  46 100 NE8       29.98F
CENTENNIAL     CLOUDY    48  46  93 NE13      29.97S
BROOMFIELD     DRZL/FOG  46  46 100 NE6       29.99F VSB 1
FORT COLLINS   LGT RAIN  48  45  89 E9        29.99F
LONGMONT       LGT RAIN  50  47  87 E6        30.00F
$$

COZ041-046-047-076>085-087-088-242300-
...PIKES PEAK/PALMER DIVIDE AND SOUTHERN FOOTHILLS...

CITY           SKY/WX    TMP DP  RH WIND       PRES   REMARKS
COLO. SPRINGS  PTSUNNY   55  48  77 SE10      29.98S
A. F. ACADEMY  PTSUNNY   57  43  58 SE13      29.96F
SCHRIEVER AFB  PTSUNNY   54  45  69 SE9       29.98S
CHEYENNE MTN   PTSUNNY   49  46  88 SE13      29.94S
ELLICOTT       PTSUNNY  N/A N/A N/A E13       29.97S
FALCON         CLOUDY    52  45  76 SE9       30.01R
FORT CARSON    CLOUDY    56  47  71 SE9       29.95F
LIMON            N/A    N/A N/A N/A MISG        N/A
MONUMENT HILL  PTSUNNY   48  45  87 E13       30.01S
CANON CITY     CLOUDY    59  48  67 E9        29.93F
WALSENBURG     CLOUDY    55  50  82 E7        29.95S
TRINIDAD       PTSUNNY   61  52  72 E10       29.92S
$$

COZ042>045-048>051-090-091-242300-
...NORTHEAST COLORADO...

CITY           SKY/WX    TMP DP  RH WIND       PRES   REMARKS
GREELEY ARPT   CLOUDY    48  46  93 E10       30.00S
AKRON          CLOUDY    49  45  86 E10       29.99S
BURLINGTON     CLOUDY    53  51  93 NE12      29.95F
WRAY           LGT RAIN  52  52 100 NE10      29.98F
YUMA           CLOUDY    48  46  93 NE9       29.98F
STERLING       CLOUDY    52  46  82 E8        29.98S
HOLYOKE        CLOUDY    54  50  87 NE8       30.00F
FORT MORGAN    CLOUDY    50  45  83 E13       30.00S
$$

COZ086-089-092>099-242300-
...SOUTHEAST COLORADO...

CITY           SKY/WX    TMP DP  RH WIND       PRES   REMARKS
PUEBLO         CLOUDY    56  51  84 SE8       29.92F
LA JUNTA       LGT RAIN  57  55  93 NE12      29.91S FOG
LAMAR          CLOUDY    58  55  90 NE10      29.88S
SPRINGFIELD      N/A     69  62  78 CALM      29.87F
$$




USA.gov is the U.S. government's official web portal to all federal, state and local government web resources and services.